Location: Lafig�re
(44.4503°N, 4.0357°E)
Time: 06:40:29
(UTC+00:00)

Cosmos 1125 Rocket - Pass Details

Date: 17 January 2021
Orbit: 757 x 780 km, 74.0° (Epoch: 06 March)

Event Time Altitude Azimuth Distance (km) Brightness Sun altitude
Rises 06:01:58 0° 348° (NNW) 3,259 6.5 -13.0°
Reaches altitude 10° 06:04:45 10° 1° (N) 2,332 5.8 -12.5°
Maximum altitude 06:09:08 25° 57° (ENE) 1,517 5.5 -11.7°
Drops below altitude 10° 06:13:29 10° 112° (ESE) 2,330 7.6 -11.0°
Sets 06:16:16 0° 126° (SE) 3,255 8.4 -10.5°
